{"data":{"norad_id":62156,"intl_designator":"2024-224T","name":"STARLINK-32532","alt_names":[],"object_type":"PAYLOAD","status":"ACTIVE","operator":null,"country":"US","launch_date":"2024-11-30","launch_site_code":"AFETR","launch_vehicle":null,"mission":null,"orbit_class":"UNKNOWN","rcs_meters":null,"size_class":null,"mass_kg":null,"dimensions":null,"purposes":["comms"],"wikipedia_slug":null,"has_3d_model":false,"image_url":null,"decayed_at":null,"tle_current":{"epoch":"2026-09-20T00:44:57.259392Z","epoch_age_seconds":222831,"freshness":"STALE","line1":"1 62156U 24224T   26263.03121828  .00011259  00000+0  41796-3 0  9995","line2":"2 62156  42.9992 140.4269 0001528 262.8869  97.1809 15.27585724102047","mean_motion":15.27585724,"eccentricity":0.0001528,"inclination_deg":42.9992,"raan_deg":140.4269,"arg_perigee_deg":262.8869,"mean_anomaly_deg":97.1809,"bstar":0.00041796,"rev_number":10204,"period_min":94.266395487734,"perigee_km":481.98356976144,"apogee_km":484.08034299451,"semimajor_km":6861.168956378,"source":"CELESTRAK","updated_at":"2026-09-22T09:00:49.532851Z"}}}